Ft. Stewart, GA

4:01 AM EDT on March 28, 2017 (GMT -0400)
Wright Army Air Field

Weather History for KLHW - August, 2011

Change the Weather History Date:

Saturday, August 20, 2011

  Actual Average Record
Temperature  
Mean Temperature 83 °F -  
Max Temperature 94 °F 91 °F 106 °F (1983)
Min Temperature 73 °F 71 °F 64 °F (1976)
Cooling Degree Days 18    
Growing Degree Days 33 (Base 50)    
Moisture  
Dew Point 73 °F    
Average Humidity 74    
Maximum Humidity 96    
Minimum Humidity 47    
Precipitation  
Precipitation 0.00 in - - ()
Sea Level Pressure  
Sea Level Pressure 29.97 in    
Wind  
Wind Speed 4 mph (SE)    
Max Wind Speed 10 mph    
Max Gust Speed -    
Visibility 10 miles    
Events      
Averages and records for this station are not official NWS values.
T = Trace of Precipitation, MM = Missing Value Source: NWS Daily Summary

Daily Weather History Graph

Daily Weather History Graph

Search for Another Location

Airport or City:

Trip Planner

Search our weather history database for the weather conditions in past years. The results will help you decide how hot, cold, wet, or windy it might be!

Date:

Astronomy

Aug. 20, 2011 Rise Set
Actual Time 6:53 AM EDT 8:04 PM EDT
Civil Twilight 6:28 AM EDT 8:30 PM EDT
Nautical Twilight 5:58 AM EDT 9:00 PM EDT
Astronomical Twilight 5:26 AM EDT 9:31 PM EDT
Moon 11:42 PM EDT (8/20) 1:02 PM EDT (8/20)
Length of Visible Light 14h 01m
Length of Day
13h 10m
Waning Gibbous, 62% of the Moon is Illuminated
Aug 20
Waning Gibbous
Aug 21
Last Quarter
Aug 28
New
Sep 4
First Quarter
Sep 12
Full

Hourly Weather History & Observations

Time (EDT) Temp. Heat Index Dew Point Humidity Pressure Visibility Wind Dir Wind Speed Gust Speed Precip Events Conditions
12:55 AM 79.0 °F - 73.6 °F 83% 29.93 in 8.0 mi South 5.8 mph - N/A   Overcast
1:55 AM 78.1 °F - 73.6 °F 86% 29.93 in 10.0 mi SSW 3.5 mph - N/A   Clear
2:55 AM 77.9 °F - 73.6 °F 86% 29.91 in 10.0 mi SSW 3.5 mph - N/A   Overcast
3:55 AM 77.7 °F - 73.6 °F 87% 29.91 in 10.0 mi Calm Calm - N/A   Overcast
4:55 AM 76.8 °F - 73.0 °F 88% 29.92 in 10.0 mi Calm Calm - N/A   Overcast
5:55 AM 75.0 °F - 72.9 °F 93% 29.94 in 10.0 mi Calm Calm - N/A   Mostly Cloudy
6:55 AM 73.8 °F - 72.1 °F 95% 29.95 in 10.0 mi Calm Calm - N/A   Mostly Cloudy
7:55 AM 74.8 °F - 73.8 °F 96% 29.98 in 10.0 mi Calm Calm - N/A   Partly Cloudy
8:55 AM 78.4 °F - 74.5 °F 88% 29.99 in 10.0 mi Calm Calm - N/A   Mostly Cloudy
9:55 AM 84.6 °F 91.7 °F 73.9 °F 70% 30.00 in 10.0 mi Calm Calm - N/A   Partly Cloudy
10:55 AM 87.3 °F 95.3 °F 73.9 °F 64% 30.01 in 10.0 mi Calm Calm - N/A   Clear
11:55 AM 90.7 °F 99.6 °F 73.8 °F 57% 30.01 in 10.0 mi Variable 4.6 mph - N/A   Clear
12:55 PM 90.9 °F 98.3 °F 72.0 °F 54% 30.00 in 10.0 mi East 8.1 mph - N/A   Partly Cloudy
1:55 PM 93.9 °F 101.5 °F 71.2 °F 48% 29.98 in 10.0 mi ESE 9.2 mph - N/A   Partly Cloudy
2:55 PM 93.9 °F 100.8 °F 70.9 °F 47% 29.96 in 10.0 mi SE 8.1 mph - N/A   Partly Cloudy
3:55 PM 91.6 °F 97.7 °F 70.5 °F 50% 29.96 in 10.0 mi ESE 10.4 mph - N/A   Clear
4:55 PM 89.2 °F 95.9 °F 71.6 °F 56% 29.95 in 10.0 mi East 8.1 mph - N/A   Scattered Clouds
5:55 PM 87.8 °F 93.4 °F 71.1 °F 57% 29.95 in 10.0 mi East 8.1 mph - N/A   Clear
6:55 PM 87.6 °F 95.2 °F 73.0 °F 62% 29.96 in 10.0 mi East 8.1 mph - N/A   Scattered Clouds
7:55 PM 84.2 °F 91.6 °F 74.3 °F 72% 29.97 in 10.0 mi ESE 4.6 mph - N/A   Mostly Cloudy
8:55 PM 82.0 °F 88.6 °F 74.8 °F 79% 29.99 in 10.0 mi ESE 5.8 mph - N/A   Overcast
9:55 PM 81.1 °F 87.0 °F 74.7 °F 81% 30.00 in 10.0 mi SE 3.5 mph - N/A   Clear
10:55 PM 79.9 °F - 74.7 °F 84% 30.01 in 10.0 mi SSE 3.5 mph - N/A   Clear
11:55 PM 77.4 °F - 74.3 °F 90% 30.01 in 10.0 mi Calm Calm - N/A   Clear